GW3137 Weather Reports


Display with metric or nautical units.
time (UTC)temp
F
wind
direction
speed
MPH
gust
MPH
rain 1hr
in
rain 24hr
in
rain mn
in
humidity
%
barometer
mb
20260510133704 53 87 2.0 3.0 0.00 0.00 0.00 88 1017.2
20260510133205 53 87 1.0 3.0 0.00 0.00 0.00 88 1017.3
20260510130704 52 109 1.0 3.0 0.00 0.00 0.00 89 1017.7
20260510130204 51 108 0.0 0.0 0.00 0.00 0.00 89 1017.5
20260510123704 52 108 0.0 0.0 0.00 0.00 0.00 88 1017.5
20260510123205 52 108 0.0 2.0 0.00 0.00 0.00 88 1017.4
20260510120203 52 108 0.0 2.0 0.00 0.00 0.00 87 1017.2
20260510110704 53 72 0.0 1.0 0.00 0.00 0.00 86 1017.0
20260510110204 53 72 0.0 2.0 0.00 0.00 0.00 85 1017.0
20260510103704 54 72 0.0 1.0 0.00 0.00 0.00 84 1016.8
20260510103204 54 72 0.0 2.0 0.00 0.00 0.00 84 1016.8
20260510100703 55 72 0.0 0.0 0.00 0.00 0.00 83 1016.6
20260510093704 55 72 0.0 0.0 0.00 0.00 0.00 85 1016.2
20260510093205 55 72 0.0 0.0 0.00 0.00 0.00 85 1016.1
20260510090704 55 72 0.0 0.0 0.00 0.00 0.00 83 1015.9
20260510083704 55 72 0.0 0.0 0.00 0.00 0.00 84 1015.8
20260510083203 55 72 0.0 2.0 0.00 0.00 0.00 83 1015.7
20260510080703 56 72 1.0 3.0 0.00 0.00 0.00 83 1015.7
20260510080204 56 73 0.0 2.0 0.00 0.00 0.00 83 1015.8
20260510073705 56 73 0.0 0.0 0.00 0.00 0.00 82 1015.9
20260510073205 57 73 0.0 0.0 0.00 0.00 0.00 82 1015.9
20260510070204 57 73 0.0 0.0 0.00 0.00 0.00 80 1015.9
20260510063204 58 24 0.0 1.0 0.00 0.00 0.00 79 1016.0
20260510060704 61 24 0.0 1.0 0.00 0.00 0.00 75 1016.0
20260510060204 61 24 0.0 2.0 0.00 0.00 0.00 75 1016.0
20260510053704 61 24 0.0 1.0 0.00 0.00 0.00 74 1015.9
20260510053204 61 24 0.0 2.0 0.00 0.00 0.00 73 1015.8
20260510043704 63 10 0.0 0.0 0.00 0.00 0.00 72 1015.8
20260510043204 63 11 0.0 1.0 0.00 0.00 0.00 71 1015.8
20260510040704 63 11 0.0 1.0 0.00 0.00 0.00 69 1015.6
20260510040203 64 11 0.0 2.0 0.00 0.00 0.00 68 1015.6
20260510033705 65 11 0.0 0.0 0.00 0.00 0.00 65 1015.5
20260510030204 67 40 0.0 3.0 0.00 0.00 0.00 58 1015.8
20260510023704 69 333 1.0 3.0 0.00 0.00 0.00 54 1016.0
20260510023205 69 283 1.0 3.0 0.00 0.00 0.00 54 1016.0
20260510020705 70 0 1.0 3.0 0.00 0.00 0.00 53 1016.2
20260510020204 71 15 2.0 3.0 0.00 0.00 0.00 52 1016.2
20260510013704 70 8 2.0 5.0 0.00 0.00 0.00 53 1016.7
20260510013205 70 20 0.0 5.0 0.00 0.00 0.00 52 1016.7
20260510010704 70 344 1.0 2.0 0.00 0.00 0.00 52 1016.8
20260510010204 70 340 2.0 6.0 0.00 0.00 0.00 52 1016.8
20260510003704 70 342 2.0 6.0 0.00 0.00 0.00 52 1017.1
20260510003203 70 322 1.0 8.0 0.00 0.00 0.00 51 1017.2
20260510000703 70 338 3.0 9.0 0.00 0.00 0.00 51 1017.5
20260509233703 71 9 3.0 8.0 0.00 0.00 0.00 51 1017.7
20260509233205 71 0 2.0 9.0 0.00 0.00 0.00 50 1017.7
20260509230704 72 267 2.0 5.0 0.00 0.00 0.00 49 1018.0
20260509230204 71 201 1.0 10.0 0.00 0.00 0.00 49 1018.3
20260509223704 70 287 2.0 12.0 0.00 0.00 0.00 52 1018.5
20260509223204 69 293 3.0 10.0 0.00 0.00 0.00 53 1018.6
20260509220704 71 320 3.0 9.0 0.00 0.00 0.00 52 1018.6
20260509220204 71 274 2.0 8.0 0.00 0.00 0.00 52 1018.7
20260509213704 70 277 3.0 9.0 0.00 0.00 0.00 52 1018.8
20260509213205 70 292 3.0 8.0 0.00 0.00 0.00 51 1018.8
20260509210203 70 354 3.0 7.0 0.00 0.00 0.00 53 1019.0
20260509203703 70 304 3.0 8.0 0.00 0.00 0.00 54 1019.2
20260509203203 69 288 2.0 8.0 0.00 0.00 0.00 54 1019.2
20260509200705 68 336 2.0 5.0 0.00 0.00 0.00 56 1019.7
20260509200204 67 292 5.0 10.0 0.00 0.00 0.00 55 1019.7
20260509193704 68 333 2.0 8.0 0.00 0.00 0.00 56 1020.1
20260509193204 67 286 3.0 9.0 0.00 0.00 0.00 58 1020.2
20260509190704 66 29 3.0 7.0 0.00 0.00 0.00 59 1020.4
20260509183704 66 303 2.0 3.0 0.00 0.00 0.00 61 1020.6
20260509183204 65 19 2.0 6.0 0.00 0.00 0.00 62 1020.6
20260509180704 64 4 2.0 7.0 0.00 0.00 0.00 64 1020.9
20260509180205 64 25 1.0 5.0 0.00 0.00 0.00 64 1020.8
20260509173704 62 322 3.0 6.0 0.00 0.00 0.00 68 1021.0
20260509173203 62 293 1.0 6.0 0.00 0.00 0.00 68 1021.1
20260509170704 60 303 2.0 3.0 0.00 0.00 0.00 72 1021.2
20260509170204 59 308 2.0 3.0 0.00 0.00 0.00 73 1021.2
20260509163704 58 285 2.0 7.0 0.00 0.00 0.00 76 1021.5
20260509163204 58 288 1.0 5.0 0.00 0.00 0.00 76 1021.5
20260509160704 57 295 2.0 3.0 0.00 0.00 0.00 79 1021.7
20260509160204 57 355 1.0 3.0 0.00 0.00 0.00 80 1021.7
20260509153704 56 298 2.0 3.0 0.00 0.00 0.00 82 1021.9
20260509153205 55 293 1.0 3.0 0.00 0.00 0.00 83 1021.9
20260509150704 55 158 0.0 2.0 0.00 0.00 0.00 84 1022.1
20260509150203 55 265 0.0 3.0 0.00 0.00 0.00 84 1022.1
20260509143703 54 60 1.0 2.0 0.00 0.00 0.00 86 1022.2
20260509143204 54 111 0.0 3.0 0.00 0.00 0.00 86 1022.3
20260509140703 52 91 0.0 0.0 0.00 0.00 0.00 89 1022.4
20260509140203 52 91 0.0 0.0 0.00 0.00 0.00 89 1022.4